Bullock, NC

6:35 PM EST on February 05, 2016 (GMT -0500)
Henderson-Oxford

Weather History for KHNZ - March, 2013

Change the Weather History Date:

Tuesday, March 12, 2013

  Actual Average (KTDF) Record (KTDF)
Temperature  
Mean Temperature 57 °F -  
Max Temperature 67 °F 60 °F 84 °F (2006)
Min Temperature 47 °F 35 °F 17 °F (1991)
Degree Days  
Heating Degree Days 8    
Growing Degree Days 7 (Base 50)    
Moisture  
Dew Point 49 °F    
Average Humidity 72    
Maximum Humidity 94    
Minimum Humidity 43    
Precipitation  
Precipitation 0.64 in - - ()
Sea Level Pressure  
Sea Level Pressure 29.83 in    
Wind  
Wind Speed 10 mph (WSW)    
Max Wind Speed 16 mph    
Max Gust Speed 24 mph    
Visibility 9 miles    
Events Rain    
Averages and records for this station are not official NWS values.
T = Trace of Precipitation, MM = Missing Value Source: NWS Daily Summary

Daily Weather History Graph

Daily Weather History Graph

Search for Another Location

Airport or City:

Trip Planner

Search our weather history database for the weather conditions in past years. The results will help you decide how hot, cold, wet, or windy it might be!

Date:

Astronomy

Mar. 12, 2013 Rise Set
Actual Time 7:28 AM EDT 7:19 PM EDT
Civil Twilight 7:03 AM EDT 7:44 PM EDT
Nautical Twilight 6:33 AM EDT 8:14 PM EDT
Astronomical Twilight 6:03 AM EDT 8:44 PM EDT
Moon 7:37 AM EDT (3/12) 8:28 PM EDT (3/12)
Length of Visible Light 12h 41m
Length of Day
11h 50m
New Moon, 1% of the Moon is Illuminated
Mar 12
New Moon
Mar 19
First Quarter
Mar 27
Full
Apr 3
Last Quarter
Apr 10
New

Hourly Weather History & Observations

Time (EDT) Temp. Dew Point Humidity Pressure Visibility Wind Dir Wind Speed Gust Speed Precip Events Conditions
12:15 AM 59.5 °F 49.1 °F 68% 29.94 in 10.0 mi SSE 10.4 mph - N/A   Scattered Clouds
12:55 AM 59.2 °F 49.1 °F 69% 29.92 in 10.0 mi SSE 9.2 mph - N/A   Overcast
1:15 AM 59.0 °F 49.1 °F 70% 29.92 in 10.0 mi SSE 10.4 mph - N/A   Overcast
1:35 AM 59.0 °F 49.5 °F 71% 29.91 in 10.0 mi SSE 9.2 mph - N/A   Overcast
1:55 AM 58.5 °F 49.6 °F 72% 29.90 in 10.0 mi SSE 9.2 mph 17.3 mph N/A   Mostly Cloudy
2:15 AM 58.3 °F 50.4 °F 75% 29.90 in 10.0 mi SSE 8.1 mph - N/A Rain Light Rain
2:35 AM 58.1 °F 51.8 °F 80% 29.90 in 10.0 mi SSE 6.9 mph 16.1 mph N/A   Drizzle
2:55 AM 57.2 °F 52.7 °F 85% 29.88 in 10.0 mi SSE 6.9 mph - N/A Rain Light Rain
3:15 AM 56.3 °F 53.4 °F 90% 29.86 in 10.0 mi SSE 8.1 mph - N/A Rain Rain
3:55 AM 56.3 °F 53.8 °F 91% 29.84 in 7.0 mi SSE 9.2 mph 17.3 mph 0.01 in Rain Heavy Rain
4:15 AM 56.3 °F 54.1 °F 92% 29.83 in 7.0 mi SSE 8.1 mph - N/A Rain Light Rain
4:35 AM 56.5 °F 54.5 °F 93% 29.84 in 7.0 mi South 10.4 mph 17.3 mph 0.02 in Rain Rain
5:15 AM 57.2 °F 55.6 °F 94% 29.82 in 7.0 mi SSE 9.2 mph 18.4 mph 0.02 in Rain Rain
5:35 AM 57.7 °F 56.1 °F 94% 29.81 in 5.0 mi SSE 10.4 mph - 0.07 in Rain Rain
5:55 AM 58.1 °F 56.3 °F 94% 29.81 in 7.0 mi SSE 10.4 mph - 0.08 in Rain Light Rain
6:15 AM 58.1 °F 56.5 °F 94% 29.80 in 10.0 mi SSE 9.2 mph - N/A Rain Light Rain
6:35 AM 58.5 °F 56.8 °F 94% 29.79 in 7.0 mi SSE 9.2 mph - 0.02 in Rain Rain
6:55 AM 59.2 °F 57.6 °F 94% 29.78 in 7.0 mi South 15.0 mph 19.6 mph 0.06 in Rain Rain
7:15 AM 59.9 °F 58.1 °F 94% 29.78 in 10.0 mi South 15.0 mph 20.7 mph 0.01 in Rain Light Rain
7:35 AM 59.9 °F 58.1 °F 94% 29.77 in 10.0 mi South 13.8 mph 24.2 mph 0.04 in Rain Light Rain
7:55 AM 59.9 °F 57.7 °F 93% 29.77 in 10.0 mi South 13.8 mph 21.9 mph 0.04 in Rain Light Rain
8:15 AM 59.9 °F 57.7 °F 93% 29.77 in 5.0 mi South 13.8 mph 19.6 mph 0.03 in Rain Light Rain
8:35 AM 59.9 °F 58.1 °F 94% 29.78 in 4.0 mi South 15.0 mph 20.7 mph 0.06 in Rain Rain
8:55 AM 59.9 °F 58.1 °F 94% 29.78 in 2.5 mi SSW 9.2 mph 17.3 mph 0.18 in Rain Heavy Rain
9:15 AM 59.9 °F 58.1 °F 94% 29.79 in 1.8 mi SW 10.4 mph 17.3 mph 0.17 in Rain Heavy Rain
9:35 AM 59.9 °F 58.1 °F 94% 29.79 in 7.0 mi SSW 11.5 mph 17.3 mph 0.19 in Rain Light Rain
9:55 AM 59.9 °F 58.3 °F 94% 29.79 in 5.0 mi SSW 10.4 mph - 0.23 in Rain Rain
10:15 AM 60.4 °F 58.5 °F 93% 29.79 in 5.0 mi SSW 11.5 mph 23.0 mph 0.01 in Rain Light Rain
10:35 AM 61.0 °F 58.6 °F 92% 29.79 in 5.0 mi SSW 16.1 mph - 0.01 in Rain Light Rain
10:55 AM 61.9 °F 59.2 °F 91% 29.79 in 10.0 mi SSW 12.7 mph - 0.01 in   Overcast
11:15 AM 62.1 °F 58.8 °F 89% 29.79 in 10.0 mi SSW 15.0 mph - N/A   Overcast
11:35 AM 62.6 °F 58.8 °F 87% 29.79 in 10.0 mi SSW 11.5 mph - N/A   Overcast
11:55 AM 62.6 °F 59.0 °F 88% 29.79 in 7.0 mi SSW 10.4 mph 19.6 mph N/A   Overcast
12:15 PM 63.5 °F 59.5 °F 87% 29.79 in 10.0 mi SSW 11.5 mph - N/A   Overcast
12:35 PM 64.4 °F 58.8 °F 82% 29.80 in 10.0 mi SSW 12.7 mph 18.4 mph N/A   Overcast
12:55 PM 61.0 °F 55.6 °F 82% 29.82 in 7.0 mi NNW 13.8 mph 18.4 mph 0.01 in Rain Light Rain
1:15 PM 58.6 °F 55.2 °F 88% 29.82 in 10.0 mi NW 10.4 mph 17.3 mph N/A   Overcast
1:35 PM 59.4 °F 54.7 °F 84% 29.81 in 10.0 mi WNW 6.9 mph - N/A   Mostly Cloudy
1:55 PM 61.0 °F 54.9 °F 80% 29.80 in 10.0 mi NNW 5.8 mph - N/A   Scattered Clouds
2:15 PM 62.2 °F 53.6 °F 73% 29.79 in 10.0 mi NW 8.1 mph - N/A   Scattered Clouds
2:35 PM 63.9 °F 52.9 °F 67% 29.78 in 10.0 mi WNW 9.2 mph - N/A   Scattered Clouds
2:55 PM 64.9 °F 52.2 °F 63% 29.77 in 10.0 mi West 4.6 mph - N/A   Clear
3:15 PM 65.8 °F 51.6 °F 60% 29.77 in 10.0 mi West 5.8 mph - N/A   Scattered Clouds
3:35 PM 66.4 °F 51.6 °F 59% 29.76 in 10.0 mi WSW 5.8 mph - N/A   Scattered Clouds
3:55 PM 67.1 °F 50.7 °F 56% 29.76 in 10.0 mi WSW 10.4 mph - N/A   Scattered Clouds
4:15 PM 66.7 °F 49.6 °F 54% 29.77 in 10.0 mi WNW 10.4 mph 17.3 mph N/A   Mostly Cloudy
4:35 PM 64.9 °F 48.4 °F 55% 29.78 in 10.0 mi WNW 9.2 mph - N/A   Mostly Cloudy
4:55 PM 65.5 °F 46.8 °F 51% 29.78 in 10.0 mi NW 8.1 mph 17.3 mph N/A   Scattered Clouds
5:15 PM 65.3 °F 45.1 °F 48% 29.79 in 10.0 mi WNW 6.9 mph 17.3 mph N/A   Clear
5:35 PM 65.5 °F 45.0 °F 47% 29.79 in 10.0 mi NW 9.2 mph - N/A   Clear
5:55 PM 64.6 °F 43.7 °F 47% 29.79 in 10.0 mi WNW 9.2 mph - N/A   Scattered Clouds
6:15 PM 63.9 °F 42.6 °F 46% 29.80 in 10.0 mi NW 6.9 mph - N/A   Clear
6:35 PM 62.1 °F 39.6 °F 44% 29.82 in 10.0 mi NW 8.1 mph 18.4 mph N/A   Clear
6:55 PM 60.6 °F 37.9 °F 43% 29.82 in 10.0 mi NNW 6.9 mph - N/A   Clear
7:15 PM 59.2 °F 36.7 °F 43% 29.84 in 10.0 mi NW 4.6 mph - N/A   Clear
7:35 PM 57.4 °F 37.8 °F 48% 29.85 in 10.0 mi NNW 5.8 mph - N/A   Clear
7:55 PM 55.9 °F 37.8 °F 51% 29.86 in 10.0 mi NNW 5.8 mph - N/A   Clear
8:15 PM 54.5 °F 37.2 °F 52% 29.87 in 10.0 mi NNW 6.9 mph - N/A   Clear
8:35 PM 54.5 °F 34.9 °F 48% 29.89 in 10.0 mi NW 9.2 mph - N/A   Clear
8:55 PM 53.6 °F 33.1 °F 46% 29.90 in 10.0 mi NW 6.9 mph - N/A   Clear
9:15 PM 52.7 °F 32.2 °F 46% 29.91 in 10.0 mi NW 6.9 mph - N/A   Clear
9:35 PM 52.0 °F 32.0 °F 47% 29.92 in 10.0 mi NW 9.2 mph - N/A   Clear
9:55 PM 51.3 °F 30.9 °F 46% 29.92 in 10.0 mi NW 9.2 mph - N/A   Clear
10:15 PM 50.2 °F 31.3 °F 48% 29.93 in 10.0 mi WNW 8.1 mph - N/A   Clear
10:35 PM 49.8 °F 31.1 °F 49% 29.94 in 10.0 mi NW 9.2 mph - N/A   Clear
10:55 PM 48.9 °F 30.7 °F 50% 29.94 in 10.0 mi NW 6.9 mph - N/A   Clear
11:15 PM 48.2 °F 30.9 °F 51% 29.95 in 10.0 mi WNW 6.9 mph - N/A   Clear
11:35 PM 47.5 °F 30.7 °F 52% 29.95 in 10.0 mi NW 8.1 mph - N/A   Clear
11:55 PM 47.1 °F 30.7 °F 53% 29.95 in 10.0 mi NW 6.9 mph - N/A   Clear